Regional Weather Roundup
Issued by NWS Raleigh/Durham, NC

Home | Current Version | Previous Version | Text Only | Print | Product List | Glossary On
Versions: 1 2 3 4 5 6 7 8 9 10 11 12 13 14 15 16 17 18 19 20 21 22 23 24 25 26 27
000
ASUS42 KRAH 290810
RWRRAH
NORTH CAROLINA WEATHER ROUNDUP
NATIONAL WEATHER SERVICE RALEIGH NC
400 AM EDT FRI JUL 29 2016

NOTE: "FAIR" INDICATES FEW OR NO CLOUDS BELOW 12,000 FEET WITH NO
SIGNIFICANT WEATHER AND/OR OBSTRUCTIONS TO VISIBILITY.

NCZ001-053-055-056-065-067-290900-
WESTERN NORTH CAROLINA

CITY           SKY/WX    TMP DP  RH WIND       PRES   REMARKS
ASHEVILLE      LGT RAIN  71  65  81 NW15      30.01S
JEFFERSON      CLEAR     67  63  87 W12       30.02S
HICKORY        CLEAR     75  68  78 N3        29.92S
RUTHERFORDTON    N/A     73  71  92 NE5       29.94S
MOUNT AIRY     MOCLDY    74  71  91 NW3       29.94R
BOONE          LGT RAIN  66  65  96 W12       30.04R
$$

NCZ021-022-025-041-071-084-088-290900-
CENTRAL NORTH CAROLINA

CITY           SKY/WX    TMP DP  RH WIND       PRES   REMARKS
CHARLOTTE      PTCLDY    78  68  71 W8        29.92R
GREENSBORO     CLEAR     77  66  68 CALM      29.89S
WINSTON-SALEM  CLEAR     76  68  76 CALM      29.90S
RALEIGH-DURHAM CLEAR     78  70  76 W3        29.87S
FORT BRAGG     PTCLDY    81  69  66 SW9       29.87F
FAYETTEVILLE   PTCLDY    80  69  69 SW9       29.88F
BURLINGTON     CLEAR     74  70  87 CALM      29.87F
LAURINBURG     CLEAR     78  70  76 SW7       29.91S
$$

NCZ011-015-027-028-043-044-047-080-103-290900-
NORTHEASTERN NORTH CAROLINA

CITY           SKY/WX    TMP DP  RH WIND       PRES   REMARKS
ROCKY MT-WILSO CLEAR     78  73  84 SW5       29.85F
GREENVILLE     CLEAR     81  75  83 SW7       29.88F
WASHINGTON     CLEAR     80  74  83 SW6       29.86F
ELIZABETH CITY CLEAR     82  73  74 SW10      29.82F
MANTEO         NOT AVBL
CAPE HATTERAS  CLEAR     81  78  91 SW10      29.87F
$$

NCZ078-087-090-091-093-098-101-290900-
SOUTHEASTERN NORTH CAROLINA

CITY           SKY/WX    TMP DP  RH WIND       PRES   REMARKS
LUMBERTON      CLEAR     78  71  79 SW6       29.90S
GOLDSBORO      PTCLDY    81  75  81 SW9       29.86S
KENANSVILLE    NOT AVBL
NEW BERN       CLEAR     80  74  81 SW7       29.90S
CHERRY POINT   CLEAR     79  74  84 SW7       29.90S
BEAUFORT       CLEAR     83  78  85 W14       29.89S
JACKSONVILLE   CLEAR     79  74  84 SW7       29.89S
WILMINGTON     CLEAR     81  77  88 SW8       29.91S
$$





USA.gov is the U.S. government's official web portal to all federal, state and local government web resources and services.